星链-30097 (STARLINK-30097 )

导读 | 星芒AI

STARLINK-30097 是 SpaceX 星链计划中的一颗低轨通信卫星,属于第 11 批星链卫星组(v1.5 版本)。该卫星于 2023 年 9 月发射,部署在约 550 公里的轨道高度,用于提供全球宽带互联网服务。它采用先进的相控阵天线和激光通信技术,提升网络速度与稳定性。作为星链系统的一部分,STARLINK-30097 支持偏远地区互联网接入,增强全球通信覆盖能力,并为未来星链扩展奠定基础。

基本信息
目录编号:
56303
目录名称:
STARLINK-30097
国际标识:
2023-056T
轨道中心:
EARTH
卫星名称:
星链-30097
卫星全名:
星链-30097 (STARLINK-30097 )
卫星状态:
已陨落 最后检测时间 2024-07-23
发射日期:
2023-04-19 UTC
国别 :
美国 (US)
星等 :
--
轨道信息
数据来源 国际轨道数据
星历时间: 2024-07-23T15:14:06+0800
轨道信息已过期466天
半长轴: 6547.104km
偏心率: 0.0014089
轨道倾角: 42.972°
近地点辐角 252.010°
升交点赤经 95.292°
平近点角 232.854°
近地点: 159.744km
远地点: 178.194km
周期: 87.869分钟
每日圈数: 16.388113
详细信息
固有亮度:
5
最大亮度:
0.3
卫星平台:
Starlink v2.0 mini
覆盖范围:
全球
运营商:
太空探索技术公司
运营商所在国:
美国
制造商(研发单位):
太空探索技术公司
制造商所在国:
美国
使用方式:
暂无
卫星简介
星链(Starlink)计划是由太空探索技术公司(SpaceX)提出的一个巨型低轨卫星互联网星座项目,计划在2019年至2024年间在太空搭建由约1.2万颗卫星组成的“星链”网络,其中1584颗将部署在地球上空550千米处的近地轨道,并从2020年开始工作。该卫星仍在工作。